Location: Izdebno
(52.6670°N, 16.2170°E)
Time: 03:26:23
(UTC+02:00)

Transit 2A - Pass Details

Date: 01 March 2024
Orbit: 596 x 956 km, 66.7° (Epoch: 21 April)

Event Time Altitude Azimuth Distance (km) Brightness Sun altitude
Rises 23:05:41 0° 308° (NW) 2,887 9.6 -42.7°
Enters shadow 23:07:23 - 319° (NW) 2,374 9.2 -42.8°
Reaches altitude 10° 23:08:50 10° 333° (NNW) 2,021 - -42.9°
Maximum altitude 23:11:28 15° 9° (N) 1,755 - -43.0°
Drops below altitude 10° 23:14:11 10° 44° (NE) 2,117 - -43.2°
Sets 23:17:37 0° 67° (ENE) 3,109 - -43.3°
